www.pogodaiklimat.ru

Погода и климат >> Архив погоды >> Россия >> Тува >> Кызыл


АРХИВ ПОГОДЫ в Кызыле

Время (UTC), дата Ветер
(напр.,м/с)
 
Видим.   Явления Облачность Т
(С)
Тd
(С)
f
(%)
Тe
(С)
Тes
(С)
Комфортность P
(гПа)
Po
(гПа)
Тmin
(С)
Tmax
(С)
R
(мм)
R24
(мм)
S
(см)
03 16.09 ЮВ 1 50 км 9/3 1000 м
[Sc Ac trans Ci fib]
+10.0 +3.9 66 +10 +12 по сезону 1019.1 945.0
06 16.09 В 1 50 км 4/3 1000 м
[Sc Ac trans Ci fib]
+17.2 +3.7 41 +18 +25 тепло 1015.8 943.7
09 16.09 В 1 50 км 6/3 1000 м
[Sc Ac trans]
+20.1 +4.7 36 +22 +24 комфорт 1013.1 941.9
12 16.09 СВ 1 50 км 8/5 1000 м
[Sc Ac trans]
+16.1 +5.2 48 +17 +17 тепло 1013.5 941.4 +20.7
15 16.09 В 1 10 км 8/4 1000 м
[Sc Ac trans]
+11.4 +4.6 63 +11 +11 по сезону 1015.2 941.8
18 16.09 СВ 1 10 км 8/6 1000 м
[Sc Ac trans]
+12.2 +5.3 63 +12 +12 тепло 1015.3 942.1
21 16.09 С 1 10 км 10/10 1000 м
[Cb cap]
+8.0 +3.8 75 +7 +7 по сезону 1015.8 941.5
00 17.09 СВ 1 50 км в посл. час ливневой дождь 10/10 1000 м
[Cb cap]
+8.2 +4.8 79 +8 +8 тепло 1014.3 940.2 +7.4 0.0
03 17.09 В 1 20 км слабый ливневой дождь 10/10 1000 м
[Cb cap]
+9.8 +6.4 79 +9 +9 по сезону 1014.7 940.9
06 17.09 С 2 50 км в посл. час ливневой дождь 9/8 600 м
[Cb cap Ac trans Ci sp]
+11.9 +8.0 77 +11 +12 прохладно 1014.2 941.0
09 17.09 СЗ 2 50 км 9/8 600 м
[Cb cap Ac trans Ci sp]
+14.3 +5.2 54 +14 +15 по сезону 1013.4 940.8
12 17.09 З 1 50 км {ливн. осадки} 8/5 1000 м
[Cb cap Ac trans Ci fib]
+12.8 +7.3 69 +13 +13 по сезону 1014.0 941.0 +15.5 0.4
15 17.09 З 1 10 км 5/3 1000 м
[Sc Ci fib]
+7.0 +5.7 91 +6 +6 прохладно 1016.3 941.7
18 17.09 З 2 10 км 10/10 1000 м
[Cb cap]
+9.4 +5.0 74 +8 +8 по сезону 1015.8 941.9
21 17.09 СЗ 2 4000 м ливневой дождь 10/10 1000 м
[Cb cap]
+7.7 +5.9 88 +6 +6 по сезону 1016.1 941.7
00 18.09 ЮЗ 1 50 км ливневой дождь 10/10 1000 м
[Cb cap]
+7.2 +5.6 90 +6 +6 по сезону 1017.3 942.6 +6.8 12
03 18.09 Ю 1 10 км ливневой дождь 10/10 600 м
[Cb cap]
+7.5 +5.7 88 +7 +7 по сезону 1018.7 944.1
06 18.09 Ю 1 50 км слабый ливневой дождь 10/10 600 м
[Cb cap]
+9.0 +4.0 71 +9 +9 холодно 1019.2 944.9
09 18.09 СЗ 3 50 км {ливн. осадки} 10/10 1000 м
[Cb cap]
+11.1 +0.7 49 +10 +10 прохладно 1019.0 945.2
12 18.09 СЗ 3 50 км {ливн. осадки} 8/4 1000 м
[Cb cap Ac trans Ci fib]
+9.5 0.0 51 +8 +8 прохладно 1021.4 947.0 +12.3 5
15 18.09 СЗ 2 10 км 6/4 1000 м
[Cb cap Ac trans Ci fib]
+7.4 -2.3 50 +6 +6 прохладно 1024.2 949.0
18 18.09 ЮЗ 1 10 км 9/6 1000 м
[Cb cap Ac trans Ci sp]
+4.1 -1.7 66 +3 +3 по сезону 1025.9 949.7
21 18.09 штиль 0 10 км 4/4 1000 м
[Sc]
+2.2 -1.5 76 +1 +1 прохладно 1027.1 950.4
00 19.09 ЮЗ 2 50 км 8/4 1000 м
[Cb cap Ac trans]
+2.3 -2.3 72 -1 -1 прохладно 1028.2 951.4 +1.0
03 19.09 СЗ 2 50 км 8/5 1000 м
[Sc Ac trans]
+8.0 -0.5 55 +6 +8 по сезону 1028.5 953.2
06 19.09 С 5 50 км 8/8 1000 м
[Cb cap]
+10.1 -4.9 34 +8 +9 холодно 1027.4 952.6
09 19.09 СЗ 4
{11}
50 км 8/6 1000 м
[Cb cap Ac trans]
+10.2 -5.6 32 +8 +9 холодно 1027.3 952.5
12 19.09 С 4 50 км 4/4 1000 м
[Sc]
+8.1 -3.5 44 +5 +5 очень
холодно
1028.6 953.3 +12.5
15 19.09 СЗ 1 10 км ясно +5.5 -1.5 61 +5 +5 прохладно 1030.7 954.5
18 19.09 ЮЗ 2 10 км ясно +2.0 -2.0 75 -1 -1 холодно 1032.0 954.8
21 19.09 СВ 1 10 км ясно -1.0 -2.3 91 -3 -3 холодно 1032.9 954.8
00 20.09 СВ 1 50 км ясно -1.4 -2.9 90 -4 -4 холодно 1033.8 955.5 -1.6
03 20.09 СВ 1 50 км ясно +4.3 -2.5 61 +3 +9 холодно 1032.7 956.0
06 20.09 ЮВ 2 50 км 1/1 1000 м
[Cu hum]
+9.2 -1.4 47 +8 +15 холодно 1029.9 954.7
09 20.09 СВ 2 50 км ясно +12.3 -0.4 42 +12 +15 по сезону 1027.0 952.8
12 20.09 СВ 1 50 км ясно +9.3 +0.7 55 +9 +9 прохладно 1026.6 951.8 +12.9
15 20.09 В 1 10 км ясно +1.8 -2.3 74 0 0 очень
холодно
1029.8 952.7
18 20.09 штиль 0 10 км ясно +1.4 -1.4 82 0 0 прохладно 1029.4 952.3
21 20.09 штиль 0 10 км ясно -0.3 -1.2 94 -2 -2 холодно 1029.4 951.8
00 21.09 штиль 0 50 км ясно -1.7 -2.3 96 -3 -3 холодно 1030.3 952.2 -2.0
03 21.09 ЮВ 1 50 км ясно +6.8 -1.1 57 +6 +12 по сезону 1027.6 952.0
06 21.09 В 1 50 км ясно +12.9 -0.8 39 +13 +23 по сезону 1024.8 951.0
09 21.09 СЗ 1 50 км ясно +15.0 -1.2 33 +16 +20 тепло 1022.5 949.4
12 21.09 штиль 0 50 км ясно +11.4 +2.1 53 +11 +11 по сезону 1023.4 949.3 +15.9
15 21.09 Ю 1 50 км ясно +4.5 +1.2 79 +3 +3 холодно 1025.8 949.8
18 21.09 С 1 50 км ясно +2.8 -0.2 81 +1 +1 прохладно 1026.8 950.2
21 21.09 СВ 1 50 км ясно +1.2 -1.7 81 -1 -1 прохладно 1028.0 950.9
00 22.09 С 1 50 км 8/0
[Ci fib]
+0.4 -1.9 85 -2 -2 прохладно 1028.6 951.3 -0.5
03 22.09 В 1 50 км 8/0
[Ci fib]
+7.3 -0.1 59 +7 +11 по сезону 1025.5 951.1
06 22.09 В 1 50 км 9/0
[Ac trans Ci sp]
+13.6 +0.3 40 +14 +21 по сезону 1022.6 949.1
09 22.09 З 2 50 км 9/0
[Ac trans Ci sp]
+17.1 +1.0 34 +17 +20 тепло 1019.8 947.4
12 22.09 Ю 1 50 км 9/0
[Ac As Ci sp]
+12.4 +2.9 52 +13 +13 по сезону 1020.2 946.6 +17.7
15 22.09 штиль 0 10 км 9/3 1000 м
[Sc Ac trans Ci fib]
+8.8 +4.3 73 +8 +8 по сезону 1021.3 946.8
18 22.09 штиль 0 10 км 9/0
[Ac trans Ci fib]
+6.7 +4.1 83 +6 +6 по сезону 1021.7 946.6
21 22.09 З 1 10 км 9/0
[Ac trans Ci fib]
+5.7 +3.6 86 +5 +5 по сезону 1022.0 946.6

 

Местоположение метеостанции Кызыл (Тува, Россия): широта 51.72 долгота 94.50 высота над уровнем моря 632 м.

В архиве по умолчанию представлена погода в Кызыле за последнюю неделю. Архивные данные за месяц целиком и за предыдущие месяцы, начиная с января 2011 года, Вы можете получить, выбрав интересующий диапазон дат из раскрывающегося списка и нажав кнопку "Ввод!".


*Определитесь, кто Вы:
робот инопланетянин человек

Внимание! Время в таблицах - всемирное. Для получения местного времени необходимо прибавить поправку, которая в Кызыле равна 7 ч.

Смотрите также архив погоды в соседних городах и на ближайших метеорологических станциях:

Погода в Туране (Тува, Россия) (61 км)
Погода в Сосновке (Тува, Россия) (63 км)
Погода в Сарыг-Сепе (Тува, Россия) (78 км)
Погода в Хову-Аксы (Тува, Россия) (81 км)
Погода в Нижнеусинском (Красноярский край, Россия) (118 км)
Погода в Шагонаре (Тува, Россия) (127 км)
Погода в Тоора-Хем (Тува, Россия) (138 км)
Погода в Оленьей Речке (Красноярский край, Россия) (148 км)
Погода в Усть-Усе (Красноярский край, Россия) (159 км)
Погода в Эрзине (Тува, Россия) (167 км)

Пояснения к столбцам:

Ветер - указаны скорость ветра в м/с - средняя за 10 мин, порывы в срок и между сроками (в фигурных скобках) и направление, откуда дует ветер: С - северный, СВ - северо-восточный, В - восточный, ЮВ - юго-восточный, Ю - южный, ЮЗ - юго-западный, З - западный, СЗ - северо-западный.
Видимость - горизонтальная дальность видимости в метрах или километрах. При видимости от 1 до 10 км при отсутствии осадков обычно наблюдается дымка, при ухудшении видимости до 1 км и менее - туман. В сухую погоду видимость может ухудшаться дымом, пылью или мглою.
Явления - указаны атмосферные явления, наблюдавшиеся в срок или в последний час перед сроком; фигурными скобками обозначены явления, наблюдавшиеся между сроками (за 1-3 часа до срока); квадратными скобками обозначены град или гололедные отложения с указанием их диаметра в мм.
Облачность - указаны через наклонную черту общая и нижняя облачность в баллах и высота нижней границы облаков в метрах; квадратными скобками обозначены формы облаков: Ci - перистые, Cs - перисто-слоистые, Cc - перисто-кучевые, Ac - высококучевые, As - высокослоистые, Sc - слоисто-кучевые, Ns - слоисто-дождевые, Cu - кучевые, Cb - кучево-дождевые. Подробнее классификацию облаков см. в Атласе облаков (PDF).
T - Температура воздуха - температура, измеренная на высоте 2 м над землей.
Td - Температура точки росы - температура, при понижении до которой содержащийся в воздухе водяной пар достигнет насыщения.
f - Относительная влажность воздуха - влажноcть воздуха, измеренная на высоте 2 м над землей.
Te - Эффективная температура - температура, которую ощущает одетый по сезону человек в тени. Характеристика душности погоды. При расчете учитывается влияние влажности воздуха и скорости ветра на теплоощущения человека.
Tes - Эффективная температура на солнце - температура, которую ощущает человек, с поправкой на солнечный нагрев. Характеристика знойности погоды. Зависит от высоты солнца над горизонтом, облачности и скорости ветра. Ночью, в пасмурную погоду, а также при ветре 12 м/с и более поправка равна нулю.
P - Атмосферное давление - приведенное к уровню моря атмосферное давление.
Po - Атмосферное давление - измеренное на уровне метеостанции атмосферное давление.
Tmin - Минимальная температура - минимум температуры воздуха на высоте 2 м над землей.
Tmax - Максимальная температура - максимум температуры воздуха на высоте 2 м над землей.
R - Количество осадков - Количество выпавших осадков за период времени, мм. При наведении курсора мыши на число - период времени, за который выпало указанное количество осадков.
R24 - Количество осадков - Количество выпавших осадков за 24 часа, мм.
S - Снежный покров - Высота снежного покрова, см. При наведении курсора мыши на число - состояние снежного покрова и степень покрытия местности в баллах.